www.pogodaiklimat.ru

Погода и климат >> Архив погоды >> Новая Зеландия >> Веллингтон


ПОГОДА в Веллингтоне

  • Прогноз погоды в Веллингтоне
  • Монитор погоды в Веллингтоне

АРХИВ ПОГОДЫ в Веллингтоне

Время (UTC), дата Ветер
(напр.,м/с)
 
Видим.   Явления Облачность Т
(С)
Тd
(С)
f
(%)
Тe
(С)
Тes
(С)
Комфортность P
(гПа)
Po
(гПа)
Тmin
(С)
Tmax
(С)
R
(мм)
R24
(мм)
S
(см)
09 12.06 ЮЗ 6 20 км н/о +12.9 +11.1 89 +10 +10 1013.2 1011.7
12 12.06 Ю 6 20 км н/о +12.7 +11.5 92 +10 +10 1014.2 1012.7 +14.9
15 12.06 Ю 9 4000 м н/о +12.3 +11.3 94 +9 +9 1014.2 1012.7
18 12.06 Ю 10 4000 м н/о +12.0 +11.4 96 +8 +8 1013.5 1012.0 0.8
21 12.06 Ю 7 4000 м н/о +12.7 +12.3 97 +10 +10 1014.8 1013.3
00 13.06 ЮВ 9 4000 м н/о +13.3 +12.4 94 +10 +10 1013.8 1012.3 +11.8
03 13.06 Ю 9 2000 м н/о +12.9 +12.6 98 +10 +10 1011.9 1010.4
06 13.06 Ю 9 4000 м н/о +13.2 +12.7 97 +10 +10 1011.7 1010.2 0.8
09 13.06 ЮЗ 6 4000 м н/о +13.0 +12.6 97 +11 +11 1012.1 1010.6
12 13.06 ЮЗ 6 4000 м н/о +12.8 +12.2 96 +10 +10 1012.6 1011.1 +14.4
15 13.06 ЮВ 7 4000 м н/о +13.2 +12.8 97 +10 +10 1010.7 1009.2
18 13.06 ЮВ 5 10 км н/о +13.7 +12.8 94 +12 +12 1010.3 1008.8
21 13.06 СВ 1 4000 м н/о +13.0 +12.0 94 +14 +14 1011.0 1009.5
00 14.06 ЮВ 2 20 км н/о +16.7 +12.8 78 +17 +17 1010.2 1008.7 +12.3 0.8
03 14.06 ЮЗ 4 10 км н/о +14.6 +12.2 86 +13 +13 1008.0 1006.5
06 14.06 Ю 2 4000 м н/о +13.0 +11.5 91 +12 +12 1007.5 1006.0
09 14.06 СВ 2 20 км н/о +11.9 +10.9 94 +11 +11 1007.5 1006.0
12 14.06 С 1 4000 м н/о +9.5 +8.9 96 +9 +9 1006.9 1005.4 +17.2
15 14.06 СЗ 2 10 км н/о +10.3 +9.6 95 +9 +9 1006.0 1004.5
18 14.06 СВ 1 20 км н/о +10.9 +10.2 95 +11 +11 1005.4 1003.9
21 14.06 Ю 5 2000 м н/о +11.5 +11.2 98 +9 +9 1006.2 1004.7
00 15.06 Ю 9 10 км н/о +12.0 +10.0 88 +9 +9 1006.0 1004.5 +8.4 0.4
03 15.06 Ю 7 10 км н/о +11.8 +10.2 90 +9 +9 1005.4 1003.9
06 15.06 Ю 5 10 км н/о +12.2 +10.0 86 +10 +10 1005.6 1004.1 0.2
09 15.06 Ю 5 10 км н/о +12.1 +10.0 87 +10 +10 1006.4 1004.9
12 15.06 З 2 10 км н/о +11.5 +9.7 89 +10 +10 1006.3 1004.8 +12.4 0.2
15 15.06 С 2 4000 м н/о +9.7 +9.0 95 +8 +8 1005.5 1004.0
18 15.06 С 3 20 км н/о +8.4 +7.6 95 +6 +6 1006.0 1004.5 1
21 15.06 С 3 20 км н/о +10.3 +8.6 89 +8 +8 1007.4 1005.9
00 16.06 С 5 20 км н/о +14.7 +6.2 57 +13 +13 1007.3 1005.8 +7.5 2
03 16.06 С 5 20 км н/о +15.2 +6.8 57 +14 +14 1006.2 1004.7
06 16.06 С 2 20 км н/о +12.6 +2.4 50 +12 +12 1007.5 1006.0
09 16.06 З 3 20 км н/о +10.9 +7.4 79 +9 +9 1009.0 1007.5
12 16.06 С 3 20 км н/о +6.6 +3.8 82 +4 +4 1009.4 1007.9 +15.7
15 16.06 СЗ 5 20 км н/о +10.9 +0.7 49 +8 +8 1008.8 1007.3
18 16.06 С 4 20 км н/о +10.2 +3.1 61 +8 +8 1008.4 1006.9
21 16.06 С 4 20 км н/о +11.1 +2.4 55 +9 +9 1009.9 1008.4
00 17.06 З 5 20 км н/о +12.8 +1.5 46 +11 +11 1010.6 1009.1 +6.0
03 17.06 Ю 3 20 км н/о +11.7 +2.5 53 +11 +11 1010.1 1008.6
06 17.06 С 1 10 км н/о +9.6 +4.4 70 +10 +10 1011.6 1010.1
09 17.06 Ю 6 20 км н/о +10.0 +3.4 64 +7 +7 1014.6 1013.1
12 17.06 ЮЗ 9 20 км н/о +11.0 +3.7 61 +7 +7 1015.5 1014.0 +13.4 0.4
15 17.06 З 4 10 км н/о +9.8 +3.1 63 +8 +8 1017.4 1015.9
18 17.06 СВ 2 20 км н/о +7.3 +5.0 85 +6 +6 1018.4 1016.9
21 17.06 Ю 13 10 км н/о +11.3 +4.1 61 +7 +7 1020.0 1018.5
00 18.06 Ю 11 10 км н/о +10.5 +6.1 74 +6 +6 1021.9 1020.4 +6.8 0.4
03 18.06 Ю 8 10 км н/о +11.2 +5.1 66 +8 +8 1022.1 1020.6
06 18.06 Ю 10 10 км н/о +10.5 +4.1 65 +6 +6 1023.5 1022.0
09 18.06 Ю 10 10 км н/о +10.2 +5.0 70 +6 +6 1024.7 1023.2
12 18.06 Ю 7 10 км н/о +10.0 +4.8 70 +6 +6 1025.9 1024.4 +11.4
15 18.06 Ю 6 10 км н/о +10.3 +5.4 72 +7 +7 1026.3 1024.8
18 18.06 ЮЗ 4 4000 м н/о +9.8 +5.6 75 +7 +7 1026.4 1024.9
21 18.06 С 2 20 км н/о +8.5 +5.7 83 +7 +7 1027.8 1026.3
00 19.06 Ю 1 10 км н/о +11.3 +6.0 70 +11 +11 1027.7 1026.2 +8.2
03 19.06 Ю 2 10 км н/о +10.8 +5.7 71 +10 +10 1026.6 1025.1
06 19.06 С 2 20 км н/о +8.2 +5.0 80 +7 +7 1026.3 1024.8

 

Местоположение метеостанции Веллингтон (Новая Зеландия): широта -41.33 долгота 174.80 высота над уровнем моря 12 м.

В архиве по умолчанию представлена погода в Веллингтоне за последнюю неделю. Архивные данные за месяц целиком и за предыдущие месяцы, начиная с января 2011 года, Вы можете получить, выбрав интересующий диапазон дат из раскрывающегося списка и нажав кнопку "Ввод!".


*Определитесь, кто Вы:
робот инопланетянин человек

Внимание! Время в таблицах - всемирное. Для получения местного времени необходимо прибавить поправку, которая равна 12 ч.

Смотрите также архив погоды в соседних городах и на ближайших метеорологических станциях:

Погода в Парапарауму (Новая Зеландия) (50 км)
Погода на Мысе Кэмпбелл (Новая Зеландия) (67 км)
Погода в Каслпойнт (Новая Зеландия) (129 км)
Погода в Нельсоне (Новая Зеландия) (131 км)
Погода в Пальмерстон-Норте (Новая Зеландия) (132 км)
Погода в Кайкуре (Новая Зеландия) (151 км)
Погода на Косе Farewell (Новая Зеландия) (174 км)
Погода на Уэйауру (Новая Зеландия) (223 км)
Погода в Нью-Плимуте (Новая Зеландия) (263 км)
Погода в Нейпире (Новая Зеландия) (272 км)

Пояснения к столбцам:

Ветер - указаны скорость ветра в м/с - средняя за 10 мин, порывы в срок и между сроками (в фигурных скобках) и направление, откуда дует ветер: С - северный, СВ - северо-восточный, В - восточный, ЮВ - юго-восточный, Ю - южный, ЮЗ - юго-западный, З - западный, СЗ - северо-западный.
Видимость - горизонтальная дальность видимости в метрах или километрах. При видимости от 1 до 10 км при отсутствии осадков обычно наблюдается дымка, при ухудшении видимости до 1 км и менее - туман. В сухую погоду видимость может ухудшаться дымом, пылью или мглою.
Явления - указаны атмосферные явления, наблюдавшиеся в срок или в последний час перед сроком; фигурными скобками обозначены явления, наблюдавшиеся между сроками (за 1-3 часа до срока); квадратными скобками обозначены град или гололедные отложения с указанием их диаметра в мм.
Облачность - указаны через наклонную черту общая и нижняя облачность в баллах и высота нижней границы облаков в метрах; квадратными скобками обозначены формы облаков: Ci - перистые, Cs - перисто-слоистые, Cc - перисто-кучевые, Ac - высококучевые, As - высокослоистые, Sc - слоисто-кучевые, Ns - слоисто-дождевые, Cu - кучевые, Cb - кучево-дождевые. Подробнее классификацию облаков см. в Атласе облаков (PDF).
T - Температура воздуха - температура, измеренная на высоте 2 м над землей.
Td - Температура точки росы - температура, при понижении до которой содержащийся в воздухе водяной пар достигнет насыщения.
f - Относительная влажность воздуха - влажноcть воздуха, измеренная на высоте 2 м над землей.
Te - Эффективная температура - температура, которую ощущает одетый по сезону человек в тени. Характеристика душности погоды. При расчете учитывается влияние влажности воздуха и скорости ветра на теплоощущения человека.
Tes - Эффективная температура на солнце - температура, которую ощущает человек, с поправкой на солнечный нагрев. Характеристика знойности погоды. Зависит от высоты солнца над горизонтом, облачности и скорости ветра. Ночью, в пасмурную погоду, а также при ветре 12 м/с и более поправка равна нулю.
P - Атмосферное давление - приведенное к уровню моря атмосферное давление.
Po - Атмосферное давление - измеренное на уровне метеостанции атмосферное давление.
Tmin - Минимальная температура - минимум температуры воздуха на высоте 2 м над землей.
Tmax - Максимальная температура - максимум температуры воздуха на высоте 2 м над землей.
R - Количество осадков - Количество выпавших осадков за период времени, мм. При наведении курсора мыши на число - период времени, за который выпало указанное количество осадков.
R24 - Количество осадков - Количество выпавших осадков за 24 часа, мм.
S - Снежный покров - Высота снежного покрова, см. При наведении курсора мыши на число - состояние снежного покрова и степень покрытия местности в баллах.